Current weather by "City, St" or "zip code"  
 

Current Conditions: Central Kentucky Regional Airport, KY

Overcast


57.0 F

Last Updated on Feb 28 2021, 12:55 am EST
Humidity: 94%
Wind Speed: SE 4.6 mph
Barometer 30.07 in
Dewpoint: 55.4 F
Visibility: 10.00 mi
Precip: --
Heat Index: NA
Wind Chill: 57 F
Current conditions at:

Central Kentucky Regional Airport, KY (KRGA)

Lat: 37.6308475 Lon: 84.3323372

Local Radar Image active severe weather and emergency alerts image image weather storm and storm spotter reports image weather observation monitoring service image
Local
Radar
Active
Alerts
Storm Reports Obs
Monitoring

Sign-up For Email & Text Message Weather Alert Notification Services



Advertise Here

Observation History for Central Kentucky Regional Airport, KY


Time Wind
(mph)
Vis
(mi)
Weather Precip (in) Temperature (F) Relative
Humidity
Wind
Chill
(F)
Heat
Index
(F)
Pressure
Air Dwpt altimeter
(in)
sea level
(mb)
Rmks
12:55 am EST SE 4.6 10.00 Overcast -- 57.0 55.4 94% 57 NA 30.07 M
11:55 pm EST S 11.5 10.00 Overcast -- 55.0 55.4 100% 52 NA 30.08 M
10:55 pm EST SE 9.2 10.00 Overcast -- 54.0 53.6 100% 51 NA 30.10 M
9:55 pm EST NE 4.6 10.00 Mostly Cloudy -- 52.0 51.8 100% 51 NA 30.11 M
8:55 pm EST E 6.9 10.00 Overcast -- 54.0 51.8 94% 52 NA 30.13 M
7:55 pm EST NE 3.5 7.00 Overcast -- 54.0 51.8 94% NA NA 30.15 M
6:55 pm EST NE 5.8 10.00 Overcast -- 54.0 51.8 94% 53 NA 30.13 M
5:55 pm EST S 6.9 10.00 Partly Cloudy -- 55.0 51.8 88% 53 NA 30.11 M
4:55 pm EST N 0.0 10.00 Overcast -- 55.0 51.8 88% NA NA 30.12 M
3:55 pm EST N 0.0 5.00 Overcast -- 55.0 51.8 88% NA NA 30.11 M
2:55 pm EST N 0.0 10.00 Mostly Cloudy -- 55.0 51.8 88% NA NA 30.11 M
1:55 pm EST N 0.0 10.00 Overcast -- 54.0 51.8 94% NA NA 30.12 M
12:55 pm EST NW 3.5 10.00 Overcast -- 52.0 50.0 94% NA NA 30.16 M
11:55 am EST NW 5.8 10.00 Overcast -- 52.0 50.0 94% 50 NA 30.14 M
10:55 am EST NW 9.2 4.00 Overcast -- 50.0 50.0 100% 46 NA 30.13 M
9:55 am EST W 6.9 3.00 Overcast -- 52.0 50.0 94% 50 NA 30.10 M
8:55 am EST NW 13.8 G 18.4 3.00 Overcast -- 54.0 51.8 94% 50 NA 30.05 M
7:55 am EST W 11.5 G 17.3 10.00 Overcast -- 54.0 53.6 100% 51 NA 30.01 M
6:55 am EST W 8.1 10.00 Overcast -- 54.0 53.6 100% 52 NA 29.97 M
5:55 am EST S 10.4 10.00 Overcast -- 54.0 51.8 94% 51 NA 29.94 M
4:55 am EST S 6.9 10.00 Overcast -- 52.0 50.0 94% 50 NA 29.92 M
3:55 am EST S 9.2 10.00 Overcast -- 50.0 50.0 100% 46 NA 29.90 M
2:55 am EST S 5.8 5.00 Overcast -- 48.0 48.2 100% 45 NA 29.93 M
1:55 am EST S 8.1 10.00 Overcast -- 48.0 48.2 100% 44 NA 29.94 M

Regional Weather Observation


Central Kentucky Regional Airport, KY (KRGA)

Overcast
57.0 F

Stuart Powell Field Airport, KY (KDVK)

Rain
54.0 F

Lexington Blue Grass Airport, KY (KLEX)

Rain Fog/Mist
54.0 F

Frankfort, Capital City Airport, KY (KFFT)

Rain Fog/Mist
54.0 F

Georgetown Scott County Regional Airport, KY (K27K)

Overcast
50.0 F

Somerset, Somerset-Pulaski County - J.T. Wilson Field Airport, KY (KSME)

Heavy Rain
55.0 F

Advertise Here


Advertise Here